Showing default

COSMOS 2501 (GLONASS), 40315

Orbit data source: Space-Track

COSMOS 2501 (GLONASS), 40315 is a Commonwealth of Independent States-origin payload satellite in MEO that was launched on Sun, 30 Nov 2014 UTC via a SOYUZ-2-1B launch vehicle from the Plesetsk Missile And Space Complex (PKMTR). Payload-class satellites include a variety of spacecraft equipped with specific instruments for various scientific and technological missions. These include communications satellites like Starlink; space stations such as the ISS; scientific satellites like the Hubble; Earth observation satellites from companies like Planet Labs, Umbra, and HawkEye 360; GPS; miniature CubeSats for education and research; and military/defense satellites.

Loading next visibility...
Identifier
40315, 2014-075A
Orbit
MEO
Last TLE update
1 day ago
Origin
Manufacturer
Resehetnev ISS
Mission
Operational Defense Navigation
Bus & Motor
EKSPRESS-1000, AOCS
Mass
974 kg wet, ~800 kg dry
Launch date (UTC)
2014-11-30 (11 years ago)
Launch vehicle
SOYUZ-2-1B
Launch site
Plesetsk Missile And Space Complex (PKMTR)
Object type
Payload
Rocket body
Debris
Shape & HBR
Box + 2 Pan, 5 m
Radar Cross Section
3.585 m², Large (>1 m²)

Expand to show TLE details & history

TLE from 1 day ago
0 COSMOS 2501 (GLONASS)
1 40315U 14075A   25180.88691087  .00000049  00000-0  00000-0 0  9996
2 40315  63.6163 202.5685 0021850 211.9025 148.0100  2.13101478 82342
Epoch: 2025-06-29T21:17Z
TLE epoch observation values (Epoch: 2025-06-29T21:17:09.099Z)
Latitude
0.00001°
Longitude
-34.91875°
Altitude
19,177.759 km
Speed
3.946 km/s
True Right ascension
13h 30m 17s
True Declination
0° 00' 00"
Sunlit
Object was in daylight at epoch
Visualization orbit readout
Latitude
35.94569°
Longitude
-13.90383°
Altitude
19,188.202 km
Speed
3.945 km/s
Apparent Right ascension
13h 59m 36s
Apparent Declination
28° 29' 22"
Sunlit
Object is in daylight
Visualization observer readout
Local Sidereal Time
19:59:31
Azimuth
292.589° NW
Elevation
17.837°
Doppler factor
1
Orbital elements
Apogee altitude
19,185.327 km
Perigee altitude
19,073.858 km
Semi-major axis
25,507.73 km
Eccentricity
0.00219
Inclination
63.6163°
RAAN
202.5685°
Arg. of periapsis
211.9025°
True anomaly
Unknown
Mean anomaly
148.01°
Eccentric anomaly
Unknown
Mean motion
0.53276 °/min
Orbital period
675.72 mins
BSTAR
0
Loading maneuver chart data...
Loading SW <> Apogee altitude chart data...
Loading historical data...
Loading historical data...
Loading historical data...
Loading historical data...
Loading historical data...
Loading historical data...
Loading historical data...
Other satellites on launch #75 in the year 2014 (2014-11-30 UTC)

COSMOS 2501 (GLONASS) Visibility forecast

Observer location: undefined°, undefined°

Span
Click to sort rows by Start time (UTC) header in descending order
Start Az.
Max El. time (UTC)
Max El. Az.
Max El.
End time (UTC)
End Az.
310 mins2025-07-01 08:21:25.281Z292.563° NW2025-07-01 11:07:25.281Z62.003° ENE44.211°2025-07-01 13:31:25.281Z162.545° S
165 mins2025-07-02 05:36:25.281Z247.526° W2025-07-02 08:21:25.281Z346.13° N40.118°2025-07-02 08:21:25.281Z346.13° N
|